Simultaneous Nadir Overpasses (SNOs) Predictions

Prediction of SNOs between AURA and NPP Satellite Orbit:

Table of predicted SNOs for the next 14.0 days since TLE Epoch: 3/13/2021
Index Date (AURA) Time (AURA) Lat,Lon (AURA) SZA (AURA ) Date (NPP) Time (NPP) Lat,Lon (NPP) SZA (NPP ) Distance(km) Time Diff (sec)
1 03/14/2021 03:41:32 79.47, 21.18 95.29 03/14/2021 03:41:05 79.46, 21.08 95.33 2.12 27
2 03/14/2021 04:30:53 -79.70,-169.57 85.07 03/14/2021 04:31:43 -79.70,-169.61 85.10 0.78 50
3 03/16/2021 19:58:00 79.52, 137.40 94.14 03/16/2021 19:57:58 79.51, 137.26 94.17 2.77 2
4 03/16/2021 20:46:51 -80.73, -44.22 87.88 03/16/2021 20:48:05 -80.58, -43.80 87.99 17.49 74
5 03/19/2021 11:25:07 -79.38, 84.68 86.72 03/19/2021 11:24:12 -79.38, 84.64 86.67 0.96 55
6 03/19/2021 12:14:26 79.60,-106.14 92.94 03/19/2021 12:14:49 79.59,-106.28 92.95 2.97 23
7 03/22/2021 03:41:33 -79.46,-158.89 87.92 03/22/2021 03:41:03 -79.46,-158.93 87.89 0.91 30
8 03/22/2021 04:30:53 79.68, 10.29 91.75 03/22/2021 04:31:41 79.67, 10.17 91.74 2.73 48
9 03/24/2021 19:58:00 -79.54, -42.48 89.10 03/24/2021 19:57:55 -79.54, -42.50 89.10 0.46 5



Historial Predications of SNOs between AURA and NPP
